User: anonymous   Login
Location: Huntington Beach
(33.6600°N, 117.9980°W)
Time: 19:37:51
(UTC-07:00)
Language:

SL-16 R/B - Orbit

View from above orbital plane
View from above orbital plane
View from above satellite
View from above satellite

Ground track
Ground track

The orbit data is extracted from the following two-line orbital elements,

1 28353U 04021B   18173.57338562 -.00000322 +00000-0 -14401-3 0  9999
2 28353 070.9995 021.6932 0005733 332.3990 027.6827 14.14208667724512
Epoch (UTC): 22 June 2018 13:45:40
Eccentricity: 0.0005733
inclination: 70.9995°
perigee height: 841 km
apogee height: 849 km
right ascension of ascending node: 21.6932°
argument of perigee: 332.3990°
revolutions per day: 14.14208667
mean anomaly at epoch: 27.6827°
orbit number at epoch: 72451

The dashed part of the orbit path shows where the satellite is in the earth's shadow,  

DLR